This demonstration page uses our WeatherBlox Daily Observations layout. Learn more.

Left ArrowRight Arrow

39.92423, -83.80882

Hourly Observations for December 2, 2015

Temp ( °F °C ) Dew Point ( °F °C ) Humidity (%) Winds ( mph kmh ) Pressure ( in mb ) Visibility ( mi km ) Precip ( " mm )
12:56 am 00:56 Clear 37 2.7 37 2.7 100 100 ENE 3 6 29.92 1013 10 16.0934 0 0
1:56 am 01:56 Clear with Mist and Fog 36 2.2 36 2.2 100 100 ENE 5 7 29.89 1012 4 6.43736 0 0
2:31 am 02:31 Clear with Mist and Fog 36 2 36 2 100 100 Calm 29.91 1013 2.5 4.02335 0 0
2:43 am 02:43 Clear with Mist and Fog 36 2 36 2 100 100 Calm 29.91 1013 1.25 2.011675 0 0
2:56 am 02:56 Clear with Mist and Fog 36 2.2 36 2.2 100 100 Calm 29.88 1012 1.5 2.41401 0 0
2:58 am 02:58 Clear with Mist and Fog 36 2 36 2 100 100 E 3 6 29.91 1013 1 1.60934 0 0
3:05 am 03:05 Clear with Fog 36 2 36 2 100 100 ESE 3 6 29.91 1013 0.5 0.80467 0 0
3:16 am 03:16 Clear with Mist and Fog 36 2 36 2 100 100 Calm 29.91 1013 1 1.60934 0 0
3:28 am 03:28 Clear with Fog 36 2 36 2 100 100 Calm 29.88 1012 0.5 0.80467 0 0
3:41 am 03:41 Clear with Mist and Fog 36 2 36 2 100 100 Calm 29.88 1012 1 1.60934 0 0
3:56 am 03:56 Clear with Mist and Fog 35 1.6 35 1.6 100 100 SE 3 6 29.86 1011 0.75 1.207005 0 0
4:04 am 04:04 Clear with Fog 36 2 36 2 100 100 ESE 3 6 29.88 1012 0.25 0.402335 0 0
4:14 am 04:14 Clear with Fog 34 1 34 1 100 100 E 3 6 29.88 1012 0.5 0.80467 0 0
4:48 am 04:48 Clear with Mist and Fog 34 1 34 1 100 100 ESE 5 7 29.88 1012 1 1.60934 0 0
4:56 am 04:56 Clear with Mist and Fog 34 1.1 34 1.1 100 100 ESE 5 7 29.85 1011 1.75 2.816345 0 0
5:14 am 05:14 Clear with Mist and Fog 36 2 36 2 100 100 ESE 5 7 29.85 1011 2 3.21868 0 0
5:33 am 05:33 Clear with Mist and Fog 36 2 36 2 100 100 ESE 3 6 29.85 1011 4 6.43736 0 0
5:56 am 05:56 Clear with Mist and Fog 35 1.6 35 1.6 100 100 SE 5 7 29.84 1011 3 4.82802 0 0
6:17 am 06:17 Clear with Mist and Fog 36 2 36 2 100 100 SE 6 9 29.85 1011 2 3.21868 0 0
6:56 am 06:56 Mostly Cloudy with Fog 36 2.2 36 2.2 100 100 Calm 29.85 1011 0.5 0.80467 0 0
7:13 am 07:13 Cloudy with Fog 36 2 36 2 100 100 Calm 29.85 1011 0.25 0.402335 0 0
7:30 am 07:30 Cloudy with Fog 36 2 36 2 100 100 Calm 29.85 1011 5 8.0467 0 0
7:45 am 07:45 Mostly Cloudy with Fog 36 2 36 2 100 100 SE 3 6 29.85 1011 5 8.0467 0 0
7:56 am 07:56 Mostly Cloudy with Fog 34 1.1 34 1.1 100 100 ESE 3 6 29.84 1011 5 8.0467 0 0
8:08 am 08:08 Mostly Cloudy with Fog 34 1 34 1 100 100 Calm 29.88 1012 0.25 0.402335 0 0
8:34 am 08:34 Cloudy with Fog 34 1 34 1 100 100 Calm 29.88 1012 5 8.0467 0 0
8:56 am 08:56 Cloudy with Fog 34 1.1 34 1.1 100 100 Calm 29.84 1011 5 8.0467 0 0
9:56 am 09:56 Cloudy with Fog 38 3.3 38 3.3 100 100 SE 5 7 29.82 1010 5 8.0467 0 0
10:12 am 10:12 Cloudy with Mist and Fog 39 4 39 4 100 100 WSW 5 7 29.83 1010 0.75 1.207005 0 0
10:14 am 10:14 Cloudy with Mist and Fog 39 4 39 4 100 100 WSW 5 7 29.83 1010 1.25 2.011675 0 0
10:16 am 10:16 Cloudy with Mist and Fog 39 4 39 4 100 100 W 5 7 29.83 1010 2 3.21868 0 0
10:22 am 10:22 Cloudy with Mist and Fog 41 5 41 5 100 100 WSW 6 9 29.83 1010 5 8.0467 0 0
10:36 am 10:36 Cloudy 41 5 41 5 100 100 SW 7 11 29.83 1010 10 16.0934 0 0
10:56 am 10:56 Cloudy 42 5.5 42 5.5 100 100 SSW 3 6 29.8 1009 10 16.0934 0 0
11:56 am 11:56 Mostly Cloudy 46 7.7 43 6.1 90 90 SSW 10 17 29.78 1008 10 16.0934 0 0
12:20 pm 12:20 Mostly Cloudy 48 9 43 6 82 82 WSW 12 19 29.74 1007 10 16.0934 0 0
12:46 pm 12:46 Mostly Cloudy 46 8 37 3 71 71 SW 12 19 29.74 1007 10 16.0934 0 0
12:56 pm 12:56 Mostly Cloudy 47 8.3 38 3.3 71 71 WSW 23 37 29.76 1008 10 16.0934 0 0
1:56 pm 13:56 Cloudy 44 6.6 38 3.3 80 80 WSW 17 28 29.79 1009 10 16.0934 0 0.0254
2:28 pm 14:28 Cloudy 43 6 36 2 76 76 W 13 20 29.8 1009 10 16.0934 0 0
2:56 pm 14:56 Cloudy 42 5.5 36 2.2 80 80 W 14 22 29.81 1010 10 16.0934 0 0
3:56 pm 15:56 Mostly Cloudy 40 4.4 35 1.6 82 82 W 16 26 29.84 1010 10 16.0934 0 0
4:05 pm 16:05 Mostly Cloudy 39 4 36 2 87 87 W 20 31 29.85 1011 10 16.0934 0 0
4:39 pm 16:39 Cloudy with Light Rain 37 3 36 2 93 93 W 15 24 29.88 1012 10 16.0934 0 0.0254
4:56 pm 16:56 Cloudy with Light Rain 35 1.6 34 1.1 97 97 W 13 20 29.88 1012 10 16.0934 0 0.0254
5:15 pm 17:15 Mostly Cloudy 36 2 34 1 93 93 W 14 22 29.88 1012 10 16.0934 0 0.0254
5:35 pm 17:35 Cloudy 36 2 34 1 93 93 W 10 17 29.91 1013 10 16.0934 0 0.0254
5:56 pm 17:56 Cloudy 35 1.6 32 0 89 89 W 10 17 29.9 1013 10 16.0934 0 0.0254
6:56 pm 18:56 Cloudy 35 1.6 32 0 89 89 W 10 17 29.91 1013 10 16.0934 0 0
7:56 pm 19:56 Cloudy 35 1.6 31 -0.5 86 86 W 9 15 29.94 1014 10 16.0934 0 0
8:56 pm 20:56 Mostly Cloudy 34 1.1 30 -1.1 85 85 WSW 9 15 29.96 1015 10 16.0934 0 0.0254
9:56 pm 21:56 Mostly Cloudy with Light Wintry Mix 34 1.1 31 -0.5 89 89 WSW 14 22 29.96 1015 10 16.0934 0 0.0254
10:41 pm 22:41 Cloudy with Light Snow 34 1 32 0 93 93 WSW 10 17 30 1016 6 9.65604 0 0.0254
10:48 pm 22:48 Cloudy with Light Snow 34 1 32 0 93 93 WSW 10 17 30.03 1017 1.75 2.816345 0 0.0254
10:56 pm 22:56 Cloudy with Light Snow 33 0.5 32 0 96 96 WSW 7 11 29.97 1015 1.5 2.41401 0 0.0254
11:01 pm 23:01 Cloudy with Light Snow 34 1 32 0 93 93 SW 7 11 30.03 1017 3 4.82802 0 0.0254
11:08 pm 23:08 Cloudy with Light Snow 34 1 32 0 93 93 WSW 9 15 30.03 1017 4 6.43736 0 0.0254
11:17 pm 23:17 Cloudy with Light Snow 34 1 32 0 93 93 WSW 10 17 30.03 1017 3 4.82802 0 0.0254
11:30 pm 23:30 Cloudy with Light Snow 34 1 32 0 93 93 WSW 9 15 30.03 1017 4 6.43736 0 0.0254
11:45 pm 23:45 Cloudy with Light Snow 34 1 32 0 93 93 WSW 9 15 30.03 1017 10 16.0934 0 0.0254
11:56 pm 23:56 Cloudy 32 0 32 0 100 100 WSW 9 15 30 1016 10 16.0934 0 0.0254

Powered by AerisWeather